Year,Month,Day,Hour,Minute,Value (Times are PST for temperature in C)
2007,06,19,00,00,7.90
2007,06,19,00,01,7.90
2007,06,19,00,02,7.90
2007,06,19,00,03,7.80
2007,06,19,00,04,7.80
2007,06,19,00,05,7.80
2007,06,19,00,06,7.80
2007,06,19,00,07,7.90
2007,06,19,00,08,7.90
2007,06,19,00,09,7.90
2007,06,19,00,10,7.90
2007,06,19,00,11,7.90
2007,06,19,00,12,7.90
2007,06,19,00,13,7.90
2007,06,19,00,14,7.90
2007,06,19,00,15,8.00
2007,06,19,00,16,8.00
2007,06,19,00,17,8.00
2007,06,19,00,18,8.00
2007,06,19,00,19,8.00
2007,06,19,00,20,8.00
2007,06,19,00,21,8.00
2007,06,19,00,22,8.00
2007,06,19,00,23,8.00
2007,06,19,00,24,8.00
2007,06,19,00,25,8.00
2007,06,19,00,26,8.00
2007,06,19,00,27,8.00
2007,06,19,00,28,8.00
2007,06,19,00,29,8.00
2007,06,19,00,30,8.00
2007,06,19,00,31,8.00
2007,06,19,00,32,8.00
2007,06,19,00,33,8.00
2007,06,19,00,34,8.00
2007,06,19,00,35,8.00
2007,06,19,00,36,8.10
2007,06,19,00,37,8.10
2007,06,19,00,38,8.10
2007,06,19,00,39,8.10
2007,06,19,00,40,8.10
2007,06,19,00,41,8.10
2007,06,19,00,42,8.10
2007,06,19,00,43,8.10
2007,06,19,00,44,8.10
2007,06,19,00,45,8.10
2007,06,19,00,46,8.10
2007,06,19,00,47,8.10
2007,06,19,00,48,8.10
2007,06,19,00,49,8.10
2007,06,19,00,50,8.10
2007,06,19,00,51,8.00
2007,06,19,00,52,8.00
2007,06,19,00,53,8.00
2007,06,19,00,54,8.00
2007,06,19,00,55,8.00
2007,06,19,00,56,8.00
2007,06,19,00,57,8.00
2007,06,19,00,58,8.00
2007,06,19,00,59,8.00
2007,06,19,01,00,8.00
2007,06,19,01,01,8.00
2007,06,19,01,02,8.00
2007,06,19,01,03,8.00
2007,06,19,01,04,8.00
2007,06,19,01,05,8.00
2007,06,19,01,06,8.00
2007,06,19,01,07,8.00
2007,06,19,01,08,8.00
2007,06,19,01,09,8.00
2007,06,19,01,10,7.90
2007,06,19,01,11,7.90
2007,06,19,01,12,7.90
2007,06,19,01,13,7.90
2007,06,19,01,14,7.90
2007,06,19,01,15,7.90
2007,06,19,01,16,7.90
2007,06,19,01,17,7.90
2007,06,19,01,18,8.00
2007,06,19,01,19,8.00
2007,06,19,01,20,8.00
2007,06,19,01,21,8.00
2007,06,19,01,22,8.00
2007,06,19,01,23,8.00
2007,06,19,01,24,8.00
2007,06,19,01,25,8.00
2007,06,19,01,26,8.00
2007,06,19,01,27,8.00
2007,06,19,01,28,8.00
2007,06,19,01,29,8.00
2007,06,19,01,30,8.10
2007,06,19,01,31,8.10
2007,06,19,01,32,8.00
2007,06,19,01,33,8.00
2007,06,19,01,34,8.00
2007,06,19,01,35,8.00
2007,06,19,01,36,8.00
2007,06,19,01,37,8.00
2007,06,19,01,38,8.00
2007,06,19,01,39,8.00
2007,06,19,01,40,8.00
2007,06,19,01,41,8.00
2007,06,19,01,42,8.00
2007,06,19,01,43,8.00
2007,06,19,01,44,8.00
2007,06,19,01,45,8.00
2007,06,19,01,46,8.00
2007,06,19,01,47,8.10
2007,06,19,01,48,8.10
2007,06,19,01,49,8.10
2007,06,19,01,50,8.10
2007,06,19,01,51,8.10
2007,06,19,01,52,8.10
2007,06,19,01,53,8.10
2007,06,19,01,54,8.10
2007,06,19,01,55,8.10
2007,06,19,01,56,8.10
2007,06,19,01,57,8.10
2007,06,19,01,58,8.10
2007,06,19,01,59,8.00
2007,06,19,02,00,8.00
2007,06,19,02,01,7.90
2007,06,19,02,02,7.90
2007,06,19,02,03,7.90
2007,06,19,02,04,7.90
2007,06,19,02,05,7.80
2007,06,19,02,06,7.80
2007,06,19,02,07,7.80
2007,06,19,02,08,7.80
2007,06,19,02,09,7.70
2007,06,19,02,10,7.70
2007,06,19,02,11,7.70
2007,06,19,02,12,7.70
2007,06,19,02,13,7.70
2007,06,19,02,14,7.70
2007,06,19,02,15,7.70
2007,06,19,02,16,7.70
2007,06,19,02,17,7.70
2007,06,19,02,18,7.60
2007,06,19,02,19,7.60
2007,06,19,02,20,7.60
2007,06,19,02,21,7.60
2007,06,19,02,22,7.60
2007,06,19,02,23,7.50
2007,06,19,02,24,7.50
2007,06,19,02,25,7.50
2007,06,19,02,26,7.50
2007,06,19,02,27,7.40
2007,06,19,02,28,7.40
2007,06,19,02,29,7.40
2007,06,19,02,30,7.40
2007,06,19,02,31,7.40
2007,06,19,02,32,7.40
2007,06,19,02,33,7.40
2007,06,19,02,34,7.40
2007,06,19,02,35,7.40
2007,06,19,02,36,7.40
2007,06,19,02,37,7.40
2007,06,19,02,38,7.40
2007,06,19,02,39,7.40
2007,06,19,02,40,7.40
2007,06,19,02,41,7.30
2007,06,19,02,42,7.30
2007,06,19,02,43,7.30
2007,06,19,02,44,7.30
2007,06,19,02,45,7.30
2007,06,19,02,46,7.30
2007,06,19,02,47,7.30
2007,06,19,02,48,7.30
2007,06,19,02,49,7.30
2007,06,19,02,50,7.30
2007,06,19,02,51,7.30
2007,06,19,02,52,7.20
2007,06,19,02,53,7.20
2007,06,19,02,54,7.20
2007,06,19,02,55,7.20
2007,06,19,02,56,7.20
2007,06,19,02,57,7.20
2007,06,19,02,58,7.20
2007,06,19,02,59,7.20
2007,06,19,03,00,7.20
2007,06,19,03,01,7.20
2007,06,19,03,02,7.20
2007,06,19,03,03,7.20
2007,06,19,03,04,7.20
2007,06,19,03,05,7.20
2007,06,19,03,06,7.20
2007,06,19,03,07,7.20
2007,06,19,03,08,7.20
2007,06,19,03,09,7.20
2007,06,19,03,10,7.20
2007,06,19,03,11,7.20
2007,06,19,03,12,7.20
2007,06,19,03,13,7.20
2007,06,19,03,14,7.20
2007,06,19,03,15,7.20
2007,06,19,03,16,7.20
2007,06,19,03,17,7.20
2007,06,19,03,18,7.20
2007,06,19,03,19,7.20
2007,06,19,03,20,7.20
2007,06,19,03,21,7.20
2007,06,19,03,22,7.20
2007,06,19,03,23,7.20
2007,06,19,03,24,7.20
2007,06,19,03,25,7.20
2007,06,19,03,26,7.20
2007,06,19,03,27,7.20
2007,06,19,03,28,7.20
2007,06,19,03,29,7.20
2007,06,19,03,30,7.20
2007,06,19,03,31,7.20
2007,06,19,03,32,7.20
2007,06,19,03,33,7.20
2007,06,19,03,34,7.20
2007,06,19,03,35,7.20
2007,06,19,03,36,7.20
2007,06,19,03,37,7.20
2007,06,19,03,38,7.20
2007,06,19,03,39,7.20
2007,06,19,03,40,7.20
2007,06,19,03,41,7.20
2007,06,19,03,42,7.20
2007,06,19,03,43,7.30
2007,06,19,03,44,7.30
2007,06,19,03,45,7.30
2007,06,19,03,46,7.30
2007,06,19,03,47,7.30
2007,06,19,03,48,7.20
2007,06,19,03,49,7.30
2007,06,19,03,50,7.30
2007,06,19,03,51,7.30
2007,06,19,03,52,7.30
2007,06,19,03,53,7.30
2007,06,19,03,54,7.30
2007,06,19,03,55,7.40
2007,06,19,03,56,7.40
2007,06,19,03,57,7.40
2007,06,19,03,58,7.40
2007,06,19,03,59,7.40
2007,06,19,04,00,7.40
2007,06,19,04,01,7.40
2007,06,19,04,02,7.40
2007,06,19,04,03,7.40
2007,06,19,04,04,7.40
2007,06,19,04,05,7.40
2007,06,19,04,06,7.40
2007,06,19,04,07,7.50
2007,06,19,04,08,7.50
2007,06,19,04,09,7.50
2007,06,19,04,10,7.50
2007,06,19,04,11,7.50
2007,06,19,04,12,7.60
2007,06,19,04,13,7.60
2007,06,19,04,14,7.60
2007,06,19,04,15,7.60
2007,06,19,04,16,7.60
2007,06,19,04,17,7.60
2007,06,19,04,18,7.70
2007,06,19,04,19,7.70
2007,06,19,04,20,7.70
2007,06,19,04,21,7.70
2007,06,19,04,22,7.70
2007,06,19,04,23,7.70
2007,06,19,04,24,7.60
2007,06,19,04,25,7.70
2007,06,19,04,26,7.60
2007,06,19,04,27,7.60
2007,06,19,04,28,7.60
2007,06,19,04,29,7.60
2007,06,19,04,30,7.60
2007,06,19,04,31,7.60
2007,06,19,04,32,7.50
2007,06,19,04,33,7.50
2007,06,19,04,34,7.50
2007,06,19,04,35,7.40
2007,06,19,04,36,7.40
2007,06,19,04,37,7.40
2007,06,19,04,38,7.40
2007,06,19,04,39,7.40
2007,06,19,04,40,7.40
2007,06,19,04,41,7.40
2007,06,19,04,42,7.40
2007,06,19,04,43,7.30
2007,06,19,04,44,7.30
2007,06,19,04,45,7.30
2007,06,19,04,46,7.30
2007,06,19,04,47,7.30
2007,06,19,04,48,7.20
2007,06,19,04,49,7.20
2007,06,19,04,50,7.20
2007,06,19,04,51,7.20
2007,06,19,04,52,7.30
2007,06,19,04,53,7.20
2007,06,19,04,54,7.30
2007,06,19,04,55,7.30
2007,06,19,04,56,7.30
2007,06,19,04,57,7.20
2007,06,19,04,58,7.20
2007,06,19,04,59,7.30
2007,06,19,05,00,7.30
2007,06,19,05,01,7.30
2007,06,19,05,02,7.30
2007,06,19,05,03,7.20
2007,06,19,05,04,7.20
2007,06,19,05,05,7.20
2007,06,19,05,06,7.20
2007,06,19,05,07,7.20
2007,06,19,05,08,7.10
2007,06,19,05,09,7.10
2007,06,19,05,10,7.10
2007,06,19,05,11,7.10
2007,06,19,05,12,7.10
2007,06,19,05,13,7.00
2007,06,19,05,14,7.00
2007,06,19,05,15,7.00
2007,06,19,05,16,7.00
2007,06,19,05,17,7.00
2007,06,19,05,18,7.00
2007,06,19,05,19,7.00
2007,06,19,05,20,7.10
2007,06,19,05,21,7.10
2007,06,19,05,22,7.10
2007,06,19,05,23,7.10
2007,06,19,05,24,7.00
2007,06,19,05,25,7.00
2007,06,19,05,26,7.00
2007,06,19,05,27,6.90
2007,06,19,05,28,6.90
2007,06,19,05,29,6.90
2007,06,19,05,30,6.80
2007,06,19,05,31,6.80
2007,06,19,05,32,6.80
2007,06,19,05,33,6.80
2007,06,19,05,34,6.80
2007,06,19,05,35,6.80
2007,06,19,05,36,6.80
2007,06,19,05,37,6.80
2007,06,19,05,38,6.80
2007,06,19,05,39,6.80
2007,06,19,05,40,6.80
2007,06,19,05,41,6.70
2007,06,19,05,42,6.70
2007,06,19,05,43,6.80
2007,06,19,05,44,6.80
2007,06,19,05,45,6.80
2007,06,19,05,46,6.80
2007,06,19,05,47,6.80
2007,06,19,05,48,6.70
2007,06,19,05,49,6.70
2007,06,19,05,50,6.70
2007,06,19,05,51,6.70
2007,06,19,05,52,6.70
2007,06,19,05,53,6.70
2007,06,19,05,54,6.70
2007,06,19,05,55,6.70
2007,06,19,05,56,6.70
2007,06,19,05,57,6.70
2007,06,19,05,58,6.80
2007,06,19,05,59,6.80
2007,06,19,06,00,6.70
2007,06,19,06,01,6.70
2007,06,19,06,02,6.70
2007,06,19,06,03,6.80
2007,06,19,06,04,6.80
2007,06,19,06,05,6.80
2007,06,19,06,06,6.80
2007,06,19,06,07,6.80
2007,06,19,06,08,6.80
2007,06,19,06,09,6.80
2007,06,19,06,10,6.80
2007,06,19,06,11,6.80
2007,06,19,06,12,6.80
2007,06,19,06,13,6.80
2007,06,19,06,14,6.80
2007,06,19,06,15,6.80
2007,06,19,06,16,6.80
2007,06,19,06,17,6.80
2007,06,19,06,18,6.80
2007,06,19,06,19,6.80
2007,06,19,06,20,6.80
2007,06,19,06,21,6.80
2007,06,19,06,22,6.80
2007,06,19,06,23,6.90
2007,06,19,06,24,6.90
2007,06,19,06,25,6.90
2007,06,19,06,26,7.00
2007,06,19,06,27,7.00
2007,06,19,06,28,7.00
2007,06,19,06,29,7.10
2007,06,19,06,30,7.10
2007,06,19,06,31,7.10
2007,06,19,06,32,7.10
2007,06,19,06,33,7.10
2007,06,19,06,34,7.10
2007,06,19,06,35,7.10
2007,06,19,06,36,7.10
2007,06,19,06,37,7.10
2007,06,19,06,38,7.10
2007,06,19,06,39,7.10
2007,06,19,06,40,7.10
2007,06,19,06,41,7.20
2007,06,19,06,42,7.20
2007,06,19,06,43,7.20
2007,06,19,06,44,7.20
2007,06,19,06,45,7.20
2007,06,19,06,46,7.20
2007,06,19,06,47,7.20
2007,06,19,06,48,7.20
2007,06,19,06,49,7.20
2007,06,19,06,50,7.20
2007,06,19,06,51,7.20
2007,06,19,06,52,7.20
2007,06,19,06,53,7.20
2007,06,19,06,54,7.20
2007,06,19,06,55,7.20
2007,06,19,06,56,7.20
2007,06,19,06,57,7.20
2007,06,19,06,58,7.20
2007,06,19,06,59,7.20
2007,06,19,07,00,7.20
2007,06,19,07,01,7.20
2007,06,19,07,02,7.20
2007,06,19,07,03,7.20
2007,06,19,07,04,7.20
2007,06,19,07,05,7.20
2007,06,19,07,06,7.20
2007,06,19,07,07,7.20
2007,06,19,07,08,7.20
2007,06,19,07,09,7.20
2007,06,19,07,10,7.20
2007,06,19,07,11,7.30
2007,06,19,07,12,7.30
2007,06,19,07,13,7.40
2007,06,19,07,14,7.40
2007,06,19,07,15,7.50
2007,06,19,07,16,7.50
2007,06,19,07,17,7.60
2007,06,19,07,18,7.60
2007,06,19,07,19,7.60
2007,06,19,07,20,7.70
2007,06,19,07,21,7.70
2007,06,19,07,22,7.80
2007,06,19,07,23,7.80
2007,06,19,07,24,7.80
2007,06,19,07,25,7.90
2007,06,19,07,26,8.00
2007,06,19,07,27,8.00
2007,06,19,07,28,8.00
2007,06,19,07,29,8.10
2007,06,19,07,30,8.10
2007,06,19,07,31,8.10
2007,06,19,07,32,8.20
2007,06,19,07,33,8.20
2007,06,19,07,34,8.20
2007,06,19,07,35,8.30
2007,06,19,07,36,8.30
2007,06,19,07,37,8.40
2007,06,19,07,38,8.40
2007,06,19,07,39,8.40
2007,06,19,07,40,8.50
2007,06,19,07,41,8.50
2007,06,19,07,42,8.60
2007,06,19,07,43,8.60
2007,06,19,07,44,8.70
2007,06,19,07,45,8.80
2007,06,19,07,46,8.80
2007,06,19,07,47,8.90
2007,06,19,07,48,8.90
2007,06,19,07,49,9.00
2007,06,19,07,50,9.10
2007,06,19,07,51,9.10
2007,06,19,07,52,9.20
2007,06,19,07,53,9.20
2007,06,19,07,54,9.30
2007,06,19,07,55,9.30
2007,06,19,07,56,9.40
2007,06,19,07,57,9.40
2007,06,19,07,58,9.50
2007,06,19,07,59,9.60
2007,06,19,08,00,9.60
2007,06,19,08,01,9.70
2007,06,19,08,02,9.80
2007,06,19,08,03,9.80
2007,06,19,08,04,9.80
2007,06,19,08,05,9.90
2007,06,19,08,06,9.90
2007,06,19,08,07,10.00
2007,06,19,08,08,10.00
2007,06,19,08,09,10.10
2007,06,19,08,10,10.20
2007,06,19,08,11,10.20
2007,06,19,08,12,10.30
2007,06,19,08,13,10.40
2007,06,19,08,14,10.40
2007,06,19,08,15,10.50
2007,06,19,08,16,10.50
2007,06,19,08,17,10.60
2007,06,19,08,18,10.70
2007,06,19,08,19,10.70
2007,06,19,08,20,10.80
2007,06,19,08,21,10.90
2007,06,19,08,22,11.00
2007,06,19,08,23,11.00
2007,06,19,08,24,11.10
2007,06,19,08,25,11.20
2007,06,19,08,26,11.30
2007,06,19,08,27,11.30
2007,06,19,08,28,11.40
2007,06,19,08,29,11.40
2007,06,19,08,30,11.40
2007,06,19,08,31,11.40
2007,06,19,08,32,11.50
2007,06,19,08,33,11.50
2007,06,19,08,34,11.50
2007,06,19,08,35,11.50
2007,06,19,08,36,11.50
2007,06,19,08,37,11.50
2007,06,19,08,38,11.60
2007,06,19,08,39,11.60
2007,06,19,08,40,11.60
2007,06,19,08,41,11.60
2007,06,19,08,42,11.60
2007,06,19,08,43,11.60
2007,06,19,08,44,11.60
2007,06,19,08,45,11.60
2007,06,19,08,46,11.70
2007,06,19,08,47,11.70
2007,06,19,08,48,11.70
2007,06,19,08,49,11.80
2007,06,19,08,50,11.80
2007,06,19,08,51,11.80
2007,06,19,08,52,11.80
2007,06,19,08,53,11.90
2007,06,19,08,54,11.90
2007,06,19,08,55,12.00
2007,06,19,08,56,12.00
2007,06,19,08,57,12.10
2007,06,19,08,58,12.20
2007,06,19,08,59,12.20
2007,06,19,09,00,12.30
2007,06,19,09,01,12.30
2007,06,19,09,02,12.40
2007,06,19,09,03,12.40
2007,06,19,09,04,12.40
2007,06,19,09,05,12.50
2007,06,19,09,06,12.50
2007,06,19,09,07,12.60
2007,06,19,09,08,12.60
2007,06,19,09,09,12.60
2007,06,19,09,10,12.60
2007,06,19,09,11,12.60
2007,06,19,09,12,12.60
2007,06,19,09,13,12.60
2007,06,19,09,14,12.60
2007,06,19,09,15,12.60
2007,06,19,09,16,12.60
2007,06,19,09,17,12.70
2007,06,19,09,18,12.70
2007,06,19,09,19,12.70
2007,06,19,09,20,12.80
2007,06,19,09,21,12.80
2007,06,19,09,22,12.90
2007,06,19,09,23,12.90
2007,06,19,09,24,12.90
2007,06,19,09,25,13.00
2007,06,19,09,26,13.00
2007,06,19,09,27,13.00
2007,06,19,09,28,13.10
2007,06,19,09,29,13.10
2007,06,19,09,30,13.10
2007,06,19,09,31,13.20
2007,06,19,09,32,13.20
2007,06,19,09,33,13.20
2007,06,19,09,34,13.20
2007,06,19,09,35,13.30
2007,06,19,09,36,13.20
2007,06,19,09,37,13.20
2007,06,19,09,38,13.20
2007,06,19,09,39,13.30
2007,06,19,09,40,13.30
2007,06,19,09,41,13.30
2007,06,19,09,42,13.30
2007,06,19,09,43,13.40
2007,06,19,09,44,13.50
2007,06,19,09,45,13.60
2007,06,19,09,46,13.70
2007,06,19,09,47,13.80
2007,06,19,09,48,13.90
2007,06,19,09,49,14.00
2007,06,19,09,50,14.00
2007,06,19,09,51,14.10
2007,06,19,09,52,14.10
2007,06,19,09,53,14.10
2007,06,19,09,54,14.10
2007,06,19,09,55,14.20
2007,06,19,09,56,14.20
2007,06,19,09,57,14.20
2007,06,19,09,58,14.20
2007,06,19,09,59,14.20
2007,06,19,10,00,14.20
2007,06,19,10,01,14.20
2007,06,19,10,02,14.20
2007,06,19,10,03,14.30
2007,06,19,10,04,14.30
2007,06,19,10,05,14.30
2007,06,19,10,06,14.30
2007,06,19,10,07,14.40
2007,06,19,10,08,14.50
2007,06,19,10,09,14.60
2007,06,19,10,10,14.70
2007,06,19,10,11,14.80
2007,06,19,10,12,14.90
2007,06,19,10,13,15.00
2007,06,19,10,14,15.00
2007,06,19,10,15,15.00
2007,06,19,10,16,15.20
2007,06,19,10,17,15.30
2007,06,19,10,18,15.30
2007,06,19,10,19,15.40
2007,06,19,10,20,15.40
2007,06,19,10,21,15.50
2007,06,19,10,22,15.50
2007,06,19,10,23,15.50
2007,06,19,10,24,15.60
2007,06,19,10,25,15.60
2007,06,19,10,26,15.60
2007,06,19,10,27,15.70
2007,06,19,10,28,15.70
2007,06,19,10,29,15.70
2007,06,19,10,30,15.80
2007,06,19,10,31,15.80
2007,06,19,10,32,15.90
2007,06,19,10,33,15.90
2007,06,19,10,34,16.00
2007,06,19,10,35,16.10
2007,06,19,10,36,16.20
2007,06,19,10,37,16.30
2007,06,19,10,38,16.40
2007,06,19,10,39,16.50
2007,06,19,10,40,16.60
2007,06,19,10,41,16.70
2007,06,19,10,42,16.80
2007,06,19,10,43,16.80
2007,06,19,10,44,16.90
2007,06,19,10,45,16.90
2007,06,19,10,46,16.80
2007,06,19,10,47,16.90
2007,06,19,10,48,16.90
2007,06,19,10,49,16.90
2007,06,19,10,50,16.80
2007,06,19,10,51,16.80
2007,06,19,10,52,16.80
2007,06,19,10,53,16.80
2007,06,19,10,54,16.80
2007,06,19,10,55,16.90
2007,06,19,10,56,16.90
2007,06,19,10,57,16.90
2007,06,19,10,58,16.80
2007,06,19,10,59,16.80
2007,06,19,11,00,16.80
2007,06,19,11,01,16.80
2007,06,19,11,02,16.80
2007,06,19,11,03,16.90
2007,06,19,11,04,16.90
2007,06,19,11,05,17.00
2007,06,19,11,06,17.00
2007,06,19,11,07,17.00
2007,06,19,11,08,17.10
2007,06,19,11,09,17.10
2007,06,19,11,10,17.20
2007,06,19,11,11,17.30
2007,06,19,11,12,17.30
2007,06,19,11,13,17.30
2007,06,19,11,14,17.20
2007,06,19,11,15,17.10
2007,06,19,11,16,17.00
2007,06,19,11,17,17.00
2007,06,19,11,18,16.90
2007,06,19,11,19,16.90
2007,06,19,11,20,16.90
2007,06,19,11,21,17.00
2007,06,19,11,22,17.10
2007,06,19,11,23,17.20
2007,06,19,11,24,17.30
2007,06,19,11,25,17.40
2007,06,19,11,26,17.50
2007,06,19,11,27,17.50
2007,06,19,11,28,17.50
2007,06,19,11,29,17.40
2007,06,19,11,30,17.30
2007,06,19,11,31,17.20
2007,06,19,11,32,17.10
2007,06,19,11,33,17.00
2007,06,19,11,34,17.00
2007,06,19,11,35,16.90
2007,06,19,11,36,16.90
2007,06,19,11,37,16.90
2007,06,19,11,38,16.80
2007,06,19,11,39,16.80
2007,06,19,11,40,16.80
2007,06,19,11,41,16.90
2007,06,19,11,42,16.90
2007,06,19,11,43,16.90
2007,06,19,11,44,17.00
2007,06,19,11,45,17.00
2007,06,19,11,46,17.10
2007,06,19,11,47,17.20
2007,06,19,11,48,17.30
2007,06,19,11,49,17.40
2007,06,19,11,50,17.50
2007,06,19,11,51,17.50
2007,06,19,11,52,17.60
2007,06,19,11,53,17.70
2007,06,19,11,54,17.80
2007,06,19,11,55,17.80
2007,06,19,11,56,17.90
2007,06,19,11,57,17.90
2007,06,19,11,58,17.90
2007,06,19,11,59,17.80
2007,06,19,12,00,17.80
2007,06,19,12,01,17.80
2007,06,19,12,02,17.90
2007,06,19,12,03,17.90
2007,06,19,12,04,17.90
2007,06,19,12,05,17.80
2007,06,19,12,06,17.70
2007,06,19,12,07,17.60
2007,06,19,12,08,17.60
2007,06,19,12,09,17.70
2007,06,19,12,10,17.70
2007,06,19,12,11,17.70
2007,06,19,12,12,17.80
2007,06,19,12,13,17.80
2007,06,19,12,14,17.90
2007,06,19,12,15,17.90
2007,06,19,12,16,18.00
2007,06,19,12,17,18.00
2007,06,19,12,18,18.10
2007,06,19,12,19,18.20
2007,06,19,12,20,18.20
2007,06,19,12,21,18.30
2007,06,19,12,22,18.40
2007,06,19,12,23,18.50
2007,06,19,12,24,18.50
2007,06,19,12,25,18.40
2007,06,19,12,26,18.40
2007,06,19,12,27,18.40
2007,06,19,12,28,18.50
2007,06,19,12,29,18.60
2007,06,19,12,30,18.60
2007,06,19,12,31,18.60
2007,06,19,12,32,18.50
2007,06,19,12,33,18.50
2007,06,19,12,34,18.40
2007,06,19,12,35,18.40
2007,06,19,12,36,18.40
2007,06,19,12,37,18.40
2007,06,19,12,38,18.40
2007,06,19,12,39,18.50
2007,06,19,12,40,18.50
2007,06,19,12,41,18.60
2007,06,19,12,42,18.60
2007,06,19,12,43,18.70
2007,06,19,12,44,18.70
2007,06,19,12,45,18.70
2007,06,19,12,46,18.80
2007,06,19,12,47,18.80
2007,06,19,12,48,19.00
2007,06,19,12,49,19.00
2007,06,19,12,50,18.90
2007,06,19,12,51,18.80
2007,06,19,12,52,18.80
2007,06,19,12,53,18.80
2007,06,19,12,54,18.80
2007,06,19,12,55,18.80
2007,06,19,12,56,18.90
2007,06,19,12,57,18.80
2007,06,19,12,58,18.80
2007,06,19,12,59,18.90
2007,06,19,13,00,18.90
2007,06,19,13,01,18.90
2007,06,19,13,02,18.90
2007,06,19,13,03,18.90
2007,06,19,13,04,18.90
2007,06,19,13,05,19.00
2007,06,19,13,06,19.10
2007,06,19,13,07,19.10
2007,06,19,13,08,19.10
2007,06,19,13,09,19.00
2007,06,19,13,10,18.90
2007,06,19,13,11,18.90
2007,06,19,13,12,18.90
2007,06,19,13,13,18.90
2007,06,19,13,14,19.00
2007,06,19,13,15,19.00
2007,06,19,13,16,19.10
2007,06,19,13,17,19.20
2007,06,19,13,18,19.20
2007,06,19,13,19,19.20
2007,06,19,13,20,19.10
2007,06,19,13,21,19.00
2007,06,19,13,22,18.90
2007,06,19,13,23,18.80
2007,06,19,13,24,18.80
2007,06,19,13,25,18.80
2007,06,19,13,26,18.80
2007,06,19,13,27,18.90
2007,06,19,13,28,19.00
2007,06,19,13,29,19.00
2007,06,19,13,30,19.00
2007,06,19,13,31,19.10
2007,06,19,13,32,19.10
2007,06,19,13,33,19.20
2007,06,19,13,34,19.30
2007,06,19,13,35,19.30
2007,06,19,13,36,19.40
2007,06,19,13,37,19.40
2007,06,19,13,38,19.50
2007,06,19,13,39,19.40
2007,06,19,13,40,19.40
2007,06,19,13,41,19.40
2007,06,19,13,42,19.30
2007,06,19,13,43,19.30
2007,06,19,13,44,19.20
2007,06,19,13,45,19.20
2007,06,19,13,46,19.20
2007,06,19,13,47,19.20
2007,06,19,13,48,19.20
2007,06,19,13,49,19.30
2007,06,19,13,50,19.40
2007,06,19,13,51,19.50
2007,06,19,13,52,19.60
2007,06,19,13,53,19.70
2007,06,19,13,54,19.80
2007,06,19,13,55,19.80
2007,06,19,13,56,19.80
2007,06,19,13,57,19.80
2007,06,19,13,58,19.70
2007,06,19,13,59,19.70
2007,06,19,14,00,19.70
2007,06,19,14,01,19.60
2007,06,19,14,02,19.60
2007,06,19,14,03,19.50
2007,06,19,14,04,19.50
2007,06,19,14,05,19.50
2007,06,19,14,06,19.50
2007,06,19,14,07,19.50
2007,06,19,14,08,19.50
2007,06,19,14,09,19.50
2007,06,19,14,10,19.40
2007,06,19,14,11,19.40
2007,06,19,14,12,19.40
2007,06,19,14,13,19.30
2007,06,19,14,14,19.20
2007,06,19,14,15,19.10
2007,06,19,14,16,19.00
2007,06,19,14,17,19.00
2007,06,19,14,18,19.00
2007,06,19,14,19,19.10
2007,06,19,14,20,19.10
2007,06,19,14,21,19.20
2007,06,19,14,22,19.30
2007,06,19,14,23,19.30
2007,06,19,14,24,19.40
2007,06,19,14,25,19.60
2007,06,19,14,26,19.60
2007,06,19,14,27,19.70
2007,06,19,14,28,19.80
2007,06,19,14,29,19.90
2007,06,19,14,30,19.90
2007,06,19,14,31,20.00
2007,06,19,14,32,20.00
2007,06,19,14,33,20.00
2007,06,19,14,34,19.90
2007,06,19,14,35,19.90
2007,06,19,14,36,19.90
2007,06,19,14,37,20.00
2007,06,19,14,38,20.10
2007,06,19,14,39,20.20
2007,06,19,14,40,20.30
2007,06,19,14,41,20.50
2007,06,19,14,42,20.60
2007,06,19,14,43,20.70
2007,06,19,14,44,20.80
2007,06,19,14,45,20.80
2007,06,19,14,46,20.80
2007,06,19,14,47,20.80
2007,06,19,14,48,20.90
2007,06,19,14,49,20.90
2007,06,19,14,50,20.90
2007,06,19,14,51,20.90
2007,06,19,14,52,20.80
2007,06,19,14,53,20.80
2007,06,19,14,54,20.80
2007,06,19,14,55,20.80
2007,06,19,14,56,20.90
2007,06,19,14,57,20.90
2007,06,19,14,58,20.90
2007,06,19,14,59,20.90
2007,06,19,15,00,20.90
2007,06,19,15,01,20.90
2007,06,19,15,02,20.90
2007,06,19,15,03,20.90
2007,06,19,15,04,20.90
2007,06,19,15,05,20.90
2007,06,19,15,06,20.90
2007,06,19,15,07,20.90
2007,06,19,15,08,20.90
2007,06,19,15,09,20.80
2007,06,19,15,10,20.80
2007,06,19,15,11,20.70
2007,06,19,15,12,20.50
2007,06,19,15,13,20.40
2007,06,19,15,14,20.30
2007,06,19,15,15,20.20
2007,06,19,15,16,20.10
2007,06,19,15,17,20.00
2007,06,19,15,18,19.90
2007,06,19,15,19,19.80
2007,06,19,15,20,19.80
2007,06,19,15,21,19.70
2007,06,19,15,22,19.70
2007,06,19,15,23,19.70
2007,06,19,15,24,19.70
2007,06,19,15,25,19.70
2007,06,19,15,26,19.70
2007,06,19,15,27,19.80
2007,06,19,15,28,19.90
2007,06,19,15,29,20.10
2007,06,19,15,30,20.20
2007,06,19,15,31,20.30
2007,06,19,15,32,20.30
2007,06,19,15,33,20.20
2007,06,19,15,34,20.10
2007,06,19,15,35,20.00
2007,06,19,15,36,19.90
2007,06,19,15,37,19.80
2007,06,19,15,38,19.80
2007,06,19,15,39,19.80
2007,06,19,15,40,19.70
2007,06,19,15,41,19.70
2007,06,19,15,42,19.70
2007,06,19,15,43,19.70
2007,06,19,15,44,19.70
2007,06,19,15,45,19.70
2007,06,19,15,46,19.70
2007,06,19,15,47,19.70
2007,06,19,15,48,19.70
2007,06,19,15,49,19.70
2007,06,19,15,50,19.70
2007,06,19,15,51,19.80
2007,06,19,15,52,19.70
2007,06,19,15,53,19.70
2007,06,19,15,54,19.60
2007,06,19,15,55,19.60
2007,06,19,15,56,19.60
2007,06,19,15,57,19.60
2007,06,19,15,58,19.60
2007,06,19,15,59,19.60
2007,06,19,16,00,19.60
2007,06,19,16,01,19.60
2007,06,19,16,02,19.60
2007,06,19,16,03,19.60
2007,06,19,16,04,19.60
2007,06,19,16,05,19.50
2007,06,19,16,06,19.40
2007,06,19,16,07,19.30
2007,06,19,16,08,19.30
2007,06,19,16,09,19.30
2007,06,19,16,10,19.30
2007,06,19,16,11,19.30
2007,06,19,16,12,19.30
2007,06,19,16,13,19.30
2007,06,19,16,14,19.30
2007,06,19,16,15,19.40
2007,06,19,16,16,19.40
2007,06,19,16,17,19.40
2007,06,19,16,18,19.40
2007,06,19,16,19,19.50
2007,06,19,16,20,19.60
2007,06,19,16,21,19.70
2007,06,19,16,22,19.80
2007,06,19,16,23,20.00
2007,06,19,16,24,20.10
2007,06,19,16,25,20.30
2007,06,19,16,26,20.40
2007,06,19,16,27,20.60
2007,06,19,16,28,20.70
2007,06,19,16,29,20.80
2007,06,19,16,30,20.90
2007,06,19,16,31,21.10
2007,06,19,16,32,21.10
2007,06,19,16,33,21.00
2007,06,19,16,34,21.00
2007,06,19,16,35,20.90
2007,06,19,16,36,20.90
2007,06,19,16,37,20.90
2007,06,19,16,38,20.90
2007,06,19,16,39,20.80
2007,06,19,16,40,20.80
2007,06,19,16,41,20.70
2007,06,19,16,42,20.70
2007,06,19,16,43,20.70
2007,06,19,16,44,20.60
2007,06,19,16,45,20.60
2007,06,19,16,46,20.60
2007,06,19,16,47,20.50
2007,06,19,16,48,20.50
2007,06,19,16,49,20.50
2007,06,19,16,50,20.60
2007,06,19,16,51,20.60
2007,06,19,16,52,20.80
2007,06,19,16,53,20.90
2007,06,19,16,54,21.10
2007,06,19,16,55,21.20
2007,06,19,16,56,21.30
2007,06,19,16,57,21.50
2007,06,19,16,58,21.60
2007,06,19,16,59,21.80
2007,06,19,17,00,21.80
2007,06,19,17,01,21.90
2007,06,19,17,02,21.90
2007,06,19,17,03,21.80
2007,06,19,17,04,21.70
2007,06,19,17,05,21.60
2007,06,19,17,06,21.60
2007,06,19,17,07,21.60
2007,06,19,17,08,21.60
2007,06,19,17,09,21.50
2007,06,19,17,10,21.60
2007,06,19,17,11,21.60
2007,06,19,17,12,21.50
2007,06,19,17,13,21.50
2007,06,19,17,14,21.40
2007,06,19,17,15,21.50
2007,06,19,17,16,21.50
2007,06,19,17,17,21.50
2007,06,19,17,18,21.50
2007,06,19,17,19,21.40
2007,06,19,17,20,21.40
2007,06,19,17,21,21.30
2007,06,19,17,22,21.30
2007,06,19,17,23,21.30
2007,06,19,17,24,21.40
2007,06,19,17,25,21.40
2007,06,19,17,26,21.40
2007,06,19,17,27,21.50
2007,06,19,17,28,21.60
2007,06,19,17,29,21.70
2007,06,19,17,30,21.80
2007,06,19,17,31,21.80
2007,06,19,17,32,21.80
2007,06,19,17,33,21.80
2007,06,19,17,34,21.90
2007,06,19,17,35,21.80
2007,06,19,17,36,21.70
2007,06,19,17,37,21.60
2007,06,19,17,38,21.50
2007,06,19,17,39,21.50
2007,06,19,17,40,21.50